Theta_e
334 339 348 351 350 351 351 351 351 351 349 346 345 344 343 342 342 340 339 338 340 341 343 344 345 344 343 346 346 345 344 344 343 342 341 341 342 343 344 344 345 342 347
339 343 346 350 352 351 351 351 350 351 349 345 344 343 342 341 340 340 339 338 337 338 341 342 342 342 344 346 344 342 341 340 339 338 337 338 340 340 340 339 342 341 346
340 344 345 349 351 352 352 352 351 351 348 346 344 343 341 340 339 338 337 336 336 337 338 340 341 340 343 341 340 339 337 336 334 334 334 327 330 336 338 337 337 339 342
342 344 345 346 350 351 352 349 351 351 348 345 344 343 341 339 337 336 334 333 332 333 334 337 339 338 340 339 337 335 334 332 331 329 324 324 328 336 336 336 336 336 336
342 344 344 347 350 351 351 351 350 350 348 345 343 343 341 340 337 335 332 330 329 330 330 334 335 337 337 337 334 332 331 330 327 323 321 322 322 332 335 335 333 333 334
341 343 343 347 351 351 351 350 349 349 348 345 343 342 341 340 338 336 333 329 328 327 328 330 331 332 333 331 329 328 328 327 321 315 318 324 322 333 334 333 332 332 333
340 341 342 345 347 349 350 349 349 348 348 346 343 342 341 340 338 337 335 330 326 325 325 327 328 328 329 326 323 322 323 322 312 313 315 320 325 333 334 333 332 332 331
340 341 342 339 342 345 347 348 348 346 346 346 344 342 341 339 338 336 335 331 326 323 323 324 324 324 325 322 319 319 319 317 310 310 313 319 332 333 333 333 332 331 331
336 338 340 340 339 338 340 342 344 344 345 344 344 343 341 340 339 337 336 332 329 326 323 322 321 322 321 320 317 315 314 314 304 308 313 317 331 333 336 335 333 333 331
322 327 333 336 337 338 338 334 337 339 341 341 340 337 335 335 335 334 332 333 330 327 324 323 321 321 319 317 315 313 311 310 304 308 311 321 329 329 329 329 330 331 333
311 314 317 330 335 337 340 335 332 334 336 335 334 331 328 333 333 330 329 332 331 329 325 322 319 316 315 314 312 310 306 300 305 309 313 327 328 328 328 327 327 326 327
307 309 310 313 325 329 339 337 335 336 337 338 335 331 331 333 333 331 325 326 327 326 324 321 318 314 308 303 303 305 300 302 307 312 319 326 328 329 329 328 327 327 326
305 306 311 310 312 318 325 335 333 332 333 333 332 332 334 331 328 328 325 322 319 317 313 312 309 308 307 306 304 302 302 304 306 310 316 321 322 325 326 326 325 325 325
302 304 308 309 310 311 314 324 334 332 333 332 332 332 332 330 327 325 323 323 318 315 312 310 309 309 308 306 304 302 301 302 305 306 310 313 316 321 323 323 323 323 322
300 303 306 306 309 311 310 322 330 331 331 332 333 332 330 328 326 324 324 322 319 315 312 309 310 308 307 306 304 302 299 297 296 297 301 306 310 314 317 318 318 320 320
300 302 304 306 309 310 310 326 326 326 326 327 328 331 330 328 326 322 320 318 316 316 314 313 311 309 308 305 301 299 296 294 293 292 292 294 304 307 310 312 313 316 317
299 301 303 306 309 311 314 321 320 321 322 321 321 324 326 325 323 320 317 315 314 314 311 308 306 307 304 300 297 295 292 291 289 289 289 288 289 299 302 307 309 311 314
299 301 303 310 310 315 316 316 316 317 317 317 317 317 319 320 319 317 314 312 312 309 307 304 304 302 299 296 293 291 288 288 287 286 286 287 286 286 293 301 305 308 310
299 300 302 305 310 313 310 310 309 310 311 312 313 313 312 314 314 312 310 308 306 303 301 300 297 298 295 292 288 286 285 284 284 285 284 285 285 284 285 294 297 299 301
298 300 301 303 307 308 305 304 303 302 302 304 307 307 307 307 307 307 305 302 298 296 295 294 295 292 294 289 287 285 284 283 283 282 282 284 284 283 284 284 284 286 295
297 299 299 303 303 305 304 304 303 299 299 298 299 300 301 301 301 302 300 297 294 292 292 295 294 292 288 288 286 285 285 282 281 281 281 281 282 283 283 284 283 283 284
297 299 299 305 302 305 307 301 299 296 293 294 295 295 296 296 296 296 295 290 289 289 290 290 291 284 283 284 287 286 284 286 284 281 281 282 280 281 282 283 282 281 281
296 298 300 304 303 304 298 294 293 294 293 293 292 292 291 292 291 290 289 287 286 287 289 286 285 286 282 281 283 289 283 285 282 284 279 279 279 279 279 281 281 280 280
297 299 300 301 304 303 296 295 297 296 294 293 291 290 289 289 288 287 286 285 284 283 283 283 282 282 282 280 280 281 279 280 278 276 277 277 278 279 278 279 278 278 278
297 298 300 300 302 297 297 297 298 295 289 290 288 287 287 286 286 284 284 283 282 282 281 282 281 281 281 280 280 279 278 277 277 275 274 275 277 278 278 278 278 277 278
297 298 299 299 297 295 297 297 297 290 289 288 287 286 285 285 282 282 282 281 281 281 281 280 280 281 280 280 280 279 278 277 275 275 274 274 275 277 278 278 277 277 277
Wind_Speed
3 4 10 10 11 11 13 14 14 14 14 16 17 18 18 17 16 16 16 16 17 17 17 18 17 18 18 17 19 20 20 21 21 20 21 21 21 22 22 22 19 16 23
7 6 10 10 11 12 13 13 13 14 15 15 16 17 17 16 16 16 16 16 16 16 17 17 18 19 19 21 21 20 20 20 19 19 17 15 20 21 22 21 20 18 22
7 6 8 12 12 12 12 12 12 14 15 17 16 16 16 16 16 16 16 16 16 17 16 17 17 18 19 20 20 19 20 20 19 19 19 10 11 21 21 21 22 22 23
7 6 7 11 13 12 11 10 11 14 15 15 15 16 16 16 16 17 15 16 16 16 17 17 18 17 19 19 19 20 20 19 18 17 8 8 8 19 20 20 21 21 21
7 6 7 11 12 12 12 12 11 13 14 15 15 15 16 16 16 16 15 16 16 17 17 17 18 18 18 18 18 18 19 19 18 12 7 7 6 16 20 20 19 21 21
6 6 8 10 11 11 11 12 12 12 13 14 14 14 15 15 15 16 16 16 16 17 17 17 18 18 18 18 19 19 19 18 14 8 7 8 7 19 20 20 20 20 20
6 6 7 9 11 11 10 12 11 11 13 14 14 14 14 14 14 14 15 15 16 17 17 17 18 18 18 18 18 18 17 17 8 7 7 7 9 19 20 20 20 20 21
10 7 7 9 10 10 10 11 11 11 12 13 14 14 14 13 13 14 15 16 16 16 16 17 17 17 18 18 19 19 19 17 10 8 7 6 15 20 21 20 20 20 21
4 5 6 7 8 9 9 9 10 10 11 12 12 12 11 11 11 11 12 15 15 16 17 18 17 18 19 19 20 20 19 18 8 6 7 5 19 21 22 21 20 21 20
5 6 4 4 6 6 6 8 8 9 10 11 10 10 10 10 10 9 9 10 14 15 17 18 19 19 19 19 19 19 18 16 8 7 5 8 20 23 22 21 23 24 24
4 4 4 4 5 5 5 6 7 9 11 11 10 10 8 4 6 6 9 12 14 14 16 17 18 19 18 19 19 18 15 5 7 6 4 19 21 22 22 22 22 23 24
4 3 4 1 4 3 3 5 6 5 5 6 7 7 4 4 5 5 8 12 13 15 16 16 17 17 12 6 6 12 5 7 8 8 8 20 23 24 23 23 23 23 23
4 1 4 1 2 1 1 1 2 2 3 4 7 7 6 5 4 4 3 4 5 8 5 7 6 5 7 6 6 7 7 8 6 7 13 23 23 23 23 23 23 23 23
5 4 3 1 1 1 0 2 1 3 3 4 6 8 7 5 5 4 3 3 5 4 6 5 4 5 8 9 9 10 9 8 6 7 13 23 23 24 25 25 24 24 24
6 5 4 1 2 2 2 3 2 3 3 4 6 7 6 5 5 5 4 3 5 6 5 5 5 6 7 9 10 11 11 10 10 6 7 23 24 25 26 26 25 25 25
6 6 3 3 3 2 3 5 3 2 3 3 3 5 8 7 6 6 5 4 5 6 5 5 5 6 8 9 11 11 10 9 10 10 7 9 25 25 25 25 25 25 25
5 6 6 4 3 3 4 3 3 2 3 3 3 5 7 7 8 8 6 5 5 6 9 6 7 7 9 9 11 9 9 9 9 9 8 8 8 23 25 25 25 25 24
6 7 5 4 5 4 3 3 3 3 3 3 4 4 7 8 8 7 6 5 6 6 6 5 6 8 8 8 8 7 6 8 8 9 10 8 7 7 14 23 25 26 26
8 7 6 6 6 5 4 5 4 5 4 3 3 4 6 8 9 8 6 5 6 5 5 6 4 7 9 9 9 7 6 7 6 7 9 9 10 9 7 19 23 24 25
8 7 6 6 7 7 4 4 4 4 4 3 3 3 6 5 8 8 7 8 6 7 6 4 8 5 8 10 10 9 6 5 5 7 7 6 8 9 8 9 7 11 23
7 8 8 8 7 8 5 4 3 3 2 3 3 4 5 6 6 8 7 7 6 7 7 9 9 13 5 6 7 5 5 5 6 5 4 4 8 7 8 8 7 6 8
10 10 9 11 10 9 6 3 3 4 3 4 2 4 4 7 5 7 8 6 7 8 9 7 8 5 3 2 4 3 3 0 3 5 4 6 6 4 6 7 7 9 7
12 13 12 12 11 9 8 7 5 6 4 3 2 3 2 6 5 6 7 7 6 6 8 5 6 8 5 3 4 5 3 3 3 1 4 3 4 4 4 5 5 6 7
18 12 13 13 13 10 12 8 12 7 6 3 4 4 3 5 6 6 7 7 6 5 7 5 4 4 6 6 3 4 5 5 5 2 1 1 3 5 5 4 4 5 6
13 13 12 11 11 11 12 11 9 8 4 6 6 8 6 5 6 6 6 7 7 5 6 7 6 6 3 5 4 4 4 5 4 4 2 2 2 2 3 3 4 4 5
10 12 13 14 12 12 12 12 12 12 11 10 8 7 5 5 4 5 6 6 6 6 7 6 6 7 6 6 4 4 4 4 3 3 3 1 2 2 1 2 3 3 3
Wind_Direction
193 179 145 148 144 136 129 117 112 105 97 92 89 86 82 76 78 77 73 73 73 70 70 67 67 66 61 70 79 75 67 62 59 57 56 57 54 48 45 42 38 40 46
133 144 139 135 135 133 127 124 120 110 104 93 86 82 82 82 78 75 74 71 71 73 71 70 71 71 72 77 75 72 66 60 55 50 45 38 58 52 50 41 39 38 39
134 142 134 131 132 130 132 129 123 112 102 98 94 93 89 87 84 79 75 72 70 73 75 75 76 74 76 77 76 71 65 61 56 50 43 28 38 51 49 48 45 41 37
142 132 129 133 136 135 129 116 112 109 105 104 100 94 90 85 83 79 77 77 77 77 77 79 78 77 80 78 74 70 66 63 60 52 40 36 37 55 56 51 49 47 44
131 131 141 143 138 135 131 127 126 121 119 112 107 101 97 91 85 82 78 76 75 75 76 78 80 81 79 77 74 70 69 62 55 44 32 37 36 53 53 52 49 47 44
137 131 148 143 138 132 129 129 132 130 124 117 107 100 97 92 89 84 80 78 77 78 79 81 80 79 80 78 75 72 71 67 56 38 31 33 47 57 56 55 53 51 48
143 143 150 148 137 132 131 136 139 136 133 127 124 114 104 98 91 88 84 83 81 79 81 82 81 79 81 77 75 74 72 66 51 38 26 24 59 59 58 56 53 52 50
153 157 155 152 143 142 145 146 149 149 141 133 126 119 114 106 100 91 87 83 81 81 82 82 81 81 80 76 71 66 60 54 40 32 21 15 51 62 56 55 53 51 48
107 141 158 157 158 157 152 152 153 148 144 140 136 130 123 117 109 100 95 95 91 85 83 80 79 78 77 76 72 67 63 58 45 32 26 21 51 51 52 49 53 50 50
93 97 99 137 143 153 155 153 150 146 143 142 142 134 134 129 120 109 90 89 90 88 85 83 79 77 76 75 74 69 63 54 41 29 18 52 56 55 48 43 41 42 41
68 99 79 130 156 167 165 164 160 157 157 149 146 146 136 134 128 117 97 77 73 80 81 83 83 82 79 76 76 72 62 44 45 27 13 53 57 59 58 56 51 45 41
159 157 102 14 120 89 172 167 170 177 166 155 154 153 139 131 115 103 94 88 77 73 79 80 83 84 79 73 66 65 60 51 48 40 46 54 57 56 54 52 50 48 48
173 153 128 93 33 135 205 205 183 166 165 154 148 155 143 120 115 110 110 92 84 73 64 66 61 55 68 71 68 66 59 56 48 44 36 52 51 53 52 50 50 46 43
180 184 139 148 221 232 231 261 206 173 175 159 163 150 147 146 135 128 115 112 102 93 89 78 75 66 70 68 71 70 59 55 49 50 46 49 51 54 52 51 49 47 45
195 191 198 236 253 252 233 227 194 163 169 159 151 157 140 142 142 124 116 105 106 112 104 95 90 83 76 79 74 73 62 58 56 50 46 50 53 54 53 50 47 45 43
196 200 195 233 254 244 233 212 176 136 128 118 117 147 154 152 144 125 117 112 106 107 96 89 93 87 80 82 76 70 69 63 61 58 53 42 52 51 49 47 45 44 43
203 193 201 201 218 232 220 157 132 128 114 114 110 113 130 135 135 131 128 119 113 106 105 99 91 88 86 80 76 67 65 61 60 55 53 51 42 46 49 45 44 43 43
184 193 189 199 174 175 182 127 116 102 103 111 113 106 114 121 127 120 124 121 112 111 111 110 109 97 92 90 83 63 57 60 60 55 55 50 53 46 41 51 47 45 41
192 184 188 194 175 154 135 99 93 85 76 84 102 116 112 120 126 126 128 118 108 106 100 119 77 112 111 98 90 73 56 58 47 57 62 55 52 48 47 47 47 45 42
191 187 181 176 164 136 119 105 91 80 65 53 72 92 112 107 116 122 118 119 120 111 108 91 109 72 108 113 98 77 59 49 55 53 50 58 54 47 45 47 39 32 40
191 182 179 173 173 151 150 155 135 122 101 64 64 74 104 109 128 129 120 122 118 124 132 128 119 117 98 122 102 86 56 56 64 56 55 57 55 47 52 48 44 36 26
189 186 183 187 174 172 165 119 125 129 90 92 83 82 95 118 119 119 128 123 120 123 130 140 142 122 98 348 123 120 143 15 50 50 44 63 56 53 60 59 54 47 37
192 189 185 188 177 173 139 117 104 93 90 99 77 84 76 105 104 114 114 126 129 135 148 145 143 126 140 37 53 129 112 185 127 15 54 72 90 76 71 64 51 49 39
203 183 181 180 179 170 156 154 169 158 157 164 140 125 110 109 117 120 126 133 134 130 137 147 143 142 133 136 99 45 66 135 152 153 282 64 64 62 66 63 58 46 35
184 182 177 173 182 166 169 170 171 151 111 123 123 129 124 109 112 126 132 132 130 131 134 134 128 135 123 137 135 151 72 52 56 116 141 325 46 57 83 89 76 61 39
174 175 173 174 177 170 171 173 176 153 147 141 146 145 147 131 119 132 134 131 131 132 132 125 126 119 116 103 106 111 141 153 161 129 117 179 210 288 309 116 94 69 42